Time,TemperatureF,DewpointF,PressureIn,WindDirection,WindDirectionDegrees,WindSpeedMPH,WindSpeedGustMPH,Humidity,HourlyPrecipIn,Conditions,Clouds,dailyrainin,SoftwareType,DateUTC
2014-08-30 00:05:00,74.4,72.9,30.09,East,95,0.0,0.0,95,0.00,,,0.00,Wunderground v.1.15,2014-08-30 04:05:00,
2014-08-30 00:10:00,74.4,72.9,30.08,East,95,0.0,0.0,95,0.00,,,0.00,Wunderground v.1.15,2014-08-30 04:10:00,
2014-08-30 00:15:00,74.4,72.9,30.09,East,86,0.0,1.0,95,0.00,,,0.00,Wunderground v.1.15,2014-08-30 04:15:00,
2014-08-30 00:20:00,74.3,72.8,30.08,East,92,0.0,0.0,95,0.00,,,0.00,Wunderground v.1.15,2014-08-30 04:20:00,
2014-08-30 00:25:00,74.3,73.1,30.08,East,96,0.0,0.0,96,0.00,,,0.00,Wunderground v.1.15,2014-08-30 04:25:00,
2014-08-30 00:35:00,74.4,73.2,30.08,East,82,0.0,0.0,96,0.00,,,0.00,Wunderground v.1.15,2014-08-30 04:35:00,
2014-08-30 00:40:00,74.5,73.3,30.08,East,98,0.0,0.0,96,0.00,,,0.00,Wunderground v.1.15,2014-08-30 04:40:00,
2014-08-30 00:45:00,74.6,73.4,30.08,East,98,0.0,0.0,96,0.00,,,0.00,Wunderground v.1.15,2014-08-30 04:45:00,
2014-08-30 00:50:00,74.6,73.4,30.08,East,98,0.0,0.0,96,0.00,,,0.00,Wunderground v.1.15,2014-08-30 04:50:00,
2014-08-30 00:55:00,74.6,73.4,30.08,South,171,0.0,0.0,96,0.00,,,0.00,Wunderground v.1.15,2014-08-30 04:55:00,
2014-08-30 01:05:00,74.5,73.3,30.08,West,266,0.0,0.0,96,0.00,,,0.00,Wunderground v.1.15,2014-08-30 05:05:00,
2014-08-30 01:10:00,74.5,73.3,30.08,West,266,0.0,0.0,96,0.00,,,0.00,Wunderground v.1.15,2014-08-30 05:10:00,
2014-08-30 01:15:00,74.6,73.7,30.08,WSW,252,0.0,0.0,97,0.00,,,0.00,Wunderground v.1.15,2014-08-30 05:15:00,
2014-08-30 01:20:00,74.6,73.7,30.08,SE,128,0.0,0.0,97,0.00,,,0.00,Wunderground v.1.15,2014-08-30 05:20:00,
2014-08-30 01:25:00,74.6,73.7,30.08,SE,128,0.0,0.0,97,0.00,,,0.00,Wunderground v.1.15,2014-08-30 05:25:00,
2014-08-30 01:30:00,74.6,73.7,30.08,SE,128,0.0,0.0,97,0.00,,,0.00,Wunderground v.1.15,2014-08-30 05:30:00,
2014-08-30 01:40:00,74.6,73.7,30.08,SE,128,0.0,0.0,97,0.00,,,0.00,Wunderground v.1.15,2014-08-30 05:40:00,
2014-08-30 01:45:00,74.6,73.7,30.08,SE,128,0.0,0.0,97,0.00,,,0.00,Wunderground v.1.15,2014-08-30 05:45:00,
2014-08-30 01:50:00,74.5,73.6,30.07,SE,128,0.0,0.0,97,0.00,,,0.00,Wunderground v.1.15,2014-08-30 05:50:00,
2014-08-30 01:55:00,74.5,73.6,30.07,SE,128,0.0,0.0,97,0.00,,,0.00,Wunderground v.1.15,2014-08-30 05:55:00,
2014-08-30 02:00:00,74.4,73.5,30.07,SE,128,0.0,0.0,97,0.00,,,0.00,Wunderground v.1.15,2014-08-30 06:00:00,
2014-08-30 02:10:00,74.3,73.4,30.07,SE,128,0.0,0.0,97,0.00,,,0.00,Wunderground v.1.15,2014-08-30 06:10:00,
2014-08-30 02:15:00,74.3,73.4,30.06,SE,128,0.0,0.0,97,0.00,,,0.00,Wunderground v.1.15,2014-08-30 06:15:00,
2014-08-30 02:20:00,74.3,73.4,30.06,SE,128,0.0,0.0,97,0.00,,,0.00,Wunderground v.1.15,2014-08-30 06:20:00,
2014-08-30 02:25:00,74.2,73.3,30.06,SE,128,0.0,0.0,97,0.00,,,0.00,Wunderground v.1.15,2014-08-30 06:25:00,
2014-08-30 02:30:00,74.1,73.2,30.05,SE,128,0.0,0.0,97,0.00,,,0.00,Wunderground v.1.15,2014-08-30 06:30:00,
2014-08-30 02:40:00,74.0,73.1,30.05,SE,128,0.0,0.0,97,0.00,,,0.00,Wunderground v.1.15,2014-08-30 06:40:00,
2014-08-30 02:45:00,74.0,73.1,30.04,SE,128,0.0,0.0,97,0.00,,,0.00,Wunderground v.1.15,2014-08-30 06:45:00,
2014-08-30 02:50:00,74.0,73.1,30.04,SE,128,0.0,0.0,97,0.00,,,0.00,Wunderground v.1.15,2014-08-30 06:50:00,
2014-08-30 02:55:00,74.0,73.4,30.04,SE,128,0.0,0.0,98,0.00,,,0.00,Wunderground v.1.15,2014-08-30 06:55:00,
2014-08-30 03:00:00,73.9,73.3,30.03,SE,128,0.0,0.0,98,0.00,,,0.00,Wunderground v.1.15,2014-08-30 07:00:00,
2014-08-30 03:10:00,73.9,73.3,30.04,SE,128,0.0,0.0,98,0.00,,,0.00,Wunderground v.1.15,2014-08-30 07:10:00,
2014-08-30 03:15:00,73.9,73.3,30.04,SE,128,0.0,0.0,98,0.00,,,0.00,Wunderground v.1.15,2014-08-30 07:15:00,
2014-08-30 03:20:00,73.8,73.2,30.04,SE,128,0.0,0.0,98,0.00,,,0.00,Wunderground v.1.15,2014-08-30 07:20:00,
2014-08-30 03:25:00,73.7,73.1,30.05,SE,128,0.0,0.0,98,0.00,,,0.00,Wunderground v.1.15,2014-08-30 07:25:00,
2014-08-30 03:30:00,73.6,73.0,30.05,SE,128,0.0,0.0,98,0.00,,,0.00,Wunderground v.1.15,2014-08-30 07:30:00,
2014-08-30 03:35:00,73.5,72.9,30.05,SE,128,0.0,0.0,98,0.00,,,0.00,Wunderground v.1.15,2014-08-30 07:35:00,
2014-08-30 03:45:00,73.7,73.1,30.05,SE,128,0.0,0.0,98,0.00,,,0.00,Wunderground v.1.15,2014-08-30 07:45:00,
2014-08-30 03:50:00,73.6,73.0,30.05,SE,128,0.0,0.0,98,0.00,,,0.00,Wunderground v.1.15,2014-08-30 07:50:00,
2014-08-30 03:55:00,73.6,73.0,30.05,SE,128,0.0,0.0,98,0.00,,,0.00,Wunderground v.1.15,2014-08-30 07:55:00,
2014-08-30 04:00:00,73.6,73.0,30.05,SE,128,0.0,0.0,98,0.00,,,0.00,Wunderground v.1.15,2014-08-30 08:00:00,
2014-08-30 04:05:00,73.7,73.1,30.05,SE,128,0.0,0.0,98,0.00,,,0.00,Wunderground v.1.15,2014-08-30 08:05:00,
2014-08-30 04:15:00,73.9,73.3,30.05,SE,128,0.0,0.0,98,0.00,,,0.00,Wunderground v.1.15,2014-08-30 08:15:00,
2014-08-30 04:20:00,74.0,73.4,30.05,SE,128,0.0,0.0,98,0.00,,,0.00,Wunderground v.1.15,2014-08-30 08:20:00,
2014-08-30 04:25:00,74.1,73.5,30.04,SE,128,0.0,0.0,98,0.00,,,0.00,Wunderground v.1.15,2014-08-30 08:25:00,
2014-08-30 04:30:00,74.1,73.5,30.04,SE,128,0.0,0.0,98,0.00,,,0.00,Wunderground v.1.15,2014-08-30 08:30:00,
2014-08-30 04:35:00,74.1,73.5,30.05,SE,128,0.0,0.0,98,0.00,,,0.00,Wunderground v.1.15,2014-08-30 08:35:00,
2014-08-30 04:45:00,74.1,73.5,30.04,SE,128,0.0,0.0,98,0.00,,,0.00,Wunderground v.1.15,2014-08-30 08:45:00,
2014-08-30 04:50:00,74.1,73.5,30.05,SE,128,0.0,0.0,98,0.00,,,0.00,Wunderground v.1.15,2014-08-30 08:50:00,
2014-08-30 04:55:00,74.0,73.4,30.05,SE,128,0.0,0.0,98,0.00,,,0.00,Wunderground v.1.15,2014-08-30 08:55:00,
2014-08-30 05:00:00,73.9,73.3,30.05,SE,128,0.0,0.0,98,0.00,,,0.00,Wunderground v.1.15,2014-08-30 09:00:00,
2014-08-30 05:05:00,73.8,73.2,30.05,SE,128,0.0,0.0,98,0.00,,,0.00,Wunderground v.1.15,2014-08-30 09:05:00,
2014-08-30 05:15:00,73.8,73.2,30.05,SE,127,0.0,0.0,98,0.00,,,0.00,Wunderground v.1.15,2014-08-30 09:15:00,
2014-08-30 05:20:00,73.7,73.1,30.05,SE,128,0.0,0.0,98,0.00,,,0.00,Wunderground v.1.15,2014-08-30 09:20:00,
2014-08-30 05:25:00,74.0,73.4,30.05,SE,128,0.0,0.0,98,0.00,,,0.00,Wunderground v.1.15,2014-08-30 09:25:00,
2014-08-30 05:30:00,74.1,73.8,30.05,SE,128,0.0,0.0,99,0.00,,,0.00,Wunderground v.1.15,2014-08-30 09:30:00,
2014-08-30 05:35:00,74.1,73.5,30.06,SE,128,0.0,0.0,98,0.00,,,0.00,Wunderground v.1.15,2014-08-30 09:35:00,
2014-08-30 05:40:00,74.1,73.5,30.06,SE,128,0.0,0.0,98,0.00,,,0.00,Wunderground v.1.15,2014-08-30 09:40:00,
2014-08-30 05:50:00,74.1,73.5,30.06,SE,128,0.0,0.0,98,0.00,,,0.00,Wunderground v.1.15,2014-08-30 09:50:00,
2014-08-30 05:55:00,74.0,73.4,30.06,SE,128,0.0,0.0,98,0.00,,,0.00,Wunderground v.1.15,2014-08-30 09:55:00,
2014-08-30 06:00:00,74.1,73.5,30.07,SE,128,0.0,0.0,98,0.00,,,0.00,Wunderground v.1.15,2014-08-30 10:00:00,
2014-08-30 06:05:00,74.2,73.9,30.07,SE,128,0.0,0.0,99,0.00,,,0.00,Wunderground v.1.15,2014-08-30 10:05:00,
2014-08-30 06:10:00,74.3,74.0,30.07,SE,128,0.0,0.0,99,0.00,,,0.00,Wunderground v.1.15,2014-08-30 10:10:00,
2014-08-30 06:15:00,74.2,73.9,30.07,SE,128,0.0,0.0,99,0.00,,,0.00,Wunderground v.1.15,2014-08-30 10:15:00,
2014-08-30 06:20:00,74.2,73.6,30.07,SE,128,0.0,0.0,98,0.00,,,0.00,Wunderground v.1.15,2014-08-30 10:20:00,
2014-08-30 06:25:00,74.2,73.6,30.07,SE,127,0.0,0.0,98,0.00,,,0.00,Wunderground v.1.15,2014-08-30 10:25:00,
2014-08-30 06:30:00,74.1,73.5,30.07,SE,128,0.0,0.0,98,0.00,,,0.00,Wunderground v.1.15,2014-08-30 10:30:00,
2014-08-30 06:35:00,74.3,74.0,30.08,SE,128,0.0,0.0,99,0.00,,,0.00,Wunderground v.1.15,2014-08-30 10:35:00,
2014-08-30 06:40:00,74.5,74.2,30.07,SE,128,0.0,0.0,99,0.00,,,0.00,Wunderground v.1.15,2014-08-30 10:40:00,
2014-08-30 06:50:00,74.7,74.4,30.07,SE,128,0.0,0.0,99,0.00,,,0.00,Wunderground v.1.15,2014-08-30 10:50:00,
2014-08-30 06:55:00,74.8,74.5,30.07,SE,128,0.0,0.0,99,0.00,,,0.00,Wunderground v.1.15,2014-08-30 10:55:00,
2014-08-30 07:00:00,74.9,74.6,30.08,WSW,241,0.0,0.0,99,0.00,,,0.00,Wunderground v.1.15,2014-08-30 11:00:00,
2014-08-30 07:05:00,75.0,74.7,30.08,WSW,241,0.0,0.0,99,0.00,,,0.00,Wunderground v.1.15,2014-08-30 11:05:00,
2014-08-30 07:10:00,75.2,74.9,30.08,WSW,241,0.0,0.0,99,0.00,,,0.00,Wunderground v.1.15,2014-08-30 11:10:00,
2014-08-30 07:15:00,75.2,74.9,30.08,WSW,241,0.0,0.0,99,0.00,,,0.00,Wunderground v.1.15,2014-08-30 11:15:00,
2014-08-30 08:15:00,76.1,75.8,30.09,North,8,0.0,0.0,99,0.00,,,0.00,Wunderground v.1.15,2014-08-30 12:15:00,
2014-08-30 08:20:00,76.2,75.9,30.09,East,94,0.0,0.0,99,0.00,,,0.00,Wunderground v.1.15,2014-08-30 12:20:00,
2014-08-30 08:25:00,76.4,76.1,30.09,East,94,0.0,0.0,99,0.00,,,0.00,Wunderground v.1.15,2014-08-30 12:25:00,
2014-08-30 08:30:00,76.5,76.2,30.09,East,93,0.0,0.0,99,0.00,,,0.00,Wunderground v.1.15,2014-08-30 12:30:00,
2014-08-30 08:35:00,76.7,76.4,30.09,East,93,0.0,0.0,99,0.00,,,0.00,Wunderground v.1.15,2014-08-30 12:35:00,
2014-08-30 08:40:00,76.9,76.6,30.09,East,93,0.0,0.0,99,0.00,,,0.00,Wunderground v.1.15,2014-08-30 12:40:00,
2014-08-30 08:50:00,77.5,77.2,30.09,ESE,117,0.0,0.0,99,0.00,,,0.00,Wunderground v.1.15,2014-08-30 12:50:00,
2014-08-30 08:55:00,77.8,77.5,30.09,SE,135,0.0,0.0,99,0.00,,,0.00,Wunderground v.1.15,2014-08-30 12:55:00,
2014-08-30 09:00:00,78.2,77.9,30.10,West,281,0.0,0.0,99,0.00,,,0.00,Wunderground v.1.15,2014-08-30 13:00:00,
2014-08-30 09:05:00,78.6,78.3,30.10,West,279,0.0,1.0,99,0.00,,,0.00,Wunderground v.1.15,2014-08-30 13:05:00,
2014-08-30 09:10:00,78.9,78.6,30.10,SE,145,0.0,1.0,99,0.00,,,0.00,Wunderground v.1.15,2014-08-30 13:10:00,
2014-08-30 09:20:00,79.6,79.3,30.10,ESE,111,0.0,1.0,99,0.00,,,0.00,Wunderground v.1.15,2014-08-30 13:20:00,
2014-08-30 09:25:00,80.1,79.5,30.10,East,88,0.0,1.0,98,0.00,,,0.00,Wunderground v.1.15,2014-08-30 13:25:00,
2014-08-30 09:30:00,80.5,79.6,30.10,ESE,108,0.0,1.0,97,0.00,,,0.00,Wunderground v.1.15,2014-08-30 13:30:00,
2014-08-30 09:35:00,81.0,79.4,30.10,ESE,105,0.0,1.0,95,0.00,,,0.00,Wunderground v.1.15,2014-08-30 13:35:00,
2014-08-30 09:40:00,81.5,79.6,30.10,ESE,111,0.0,1.0,94,0.00,,,0.00,Wunderground v.1.15,2014-08-30 13:40:00,
2014-08-30 09:50:00,82.7,80.1,30.10,NE,38,0.0,1.0,92,0.00,,,0.00,Wunderground v.1.15,2014-08-30 13:50:00,
2014-08-30 09:55:00,83.3,80.4,30.10,NE,49,0.0,1.0,91,0.00,,,0.00,Wunderground v.1.15,2014-08-30 13:55:00,
2014-08-30 10:00:00,84.0,80.4,30.10,SE,136,0.0,1.0,89,0.00,,,0.00,Wunderground v.1.15,2014-08-30 14:00:00,
2014-08-30 10:05:00,84.6,81.0,30.10,NNE,27,0.0,1.0,89,0.00,,,0.00,Wunderground v.1.15,2014-08-30 14:05:00,
2014-08-30 10:10:00,85.2,80.9,30.10,NNE,27,0.0,1.0,87,0.00,,,0.00,Wunderground v.1.15,2014-08-30 14:10:00,
2014-08-30 10:20:00,86.6,81.5,30.10,ESE,112,0.0,1.0,85,0.00,,,0.00,Wunderground v.1.15,2014-08-30 14:20:00,
2014-08-30 10:25:00,87.3,81.1,30.10,ESE,103,0.0,2.0,82,0.00,,,0.00,Wunderground v.1.15,2014-08-30 14:25:00,
2014-08-30 10:30:00,87.6,81.8,30.10,ESE,108,0.0,1.0,83,0.00,,,0.00,Wunderground v.1.15,2014-08-30 14:30:00,
2014-08-30 10:35:00,88.1,81.5,30.10,East,94,0.0,1.0,81,0.00,,,0.00,Wunderground v.1.15,2014-08-30 14:35:00,
2014-08-30 10:40:00,88.2,81.6,30.10,SW,233,0.0,1.0,81,0.00,,,0.00,Wunderground v.1.15,2014-08-30 14:40:00,
2014-08-30 10:45:00,88.7,82.1,30.10,East,83,0.0,1.0,81,0.00,,,0.00,Wunderground v.1.15,2014-08-30 14:45:00,
2014-08-30 10:55:00,89.7,80.7,30.10,South,176,0.0,1.0,75,0.00,,,0.00,Wunderground v.1.15,2014-08-30 14:55:00,
2014-08-30 11:00:00,89.9,80.9,30.10,ESE,121,0.0,1.0,75,0.00,,,0.00,Wunderground v.1.15,2014-08-30 15:00:00,
2014-08-30 11:05:00,90.2,80.4,30.10,ESE,113,0.0,1.0,73,0.00,,,0.00,Wunderground v.1.15,2014-08-30 15:05:00,
2014-08-30 11:10:00,90.2,80.4,30.10,East,80,0.0,1.0,73,0.00,,,0.00,Wunderground v.1.15,2014-08-30 15:10:00,
2014-08-30 11:20:00,90.8,80.9,30.09,NNW,339,0.0,1.0,73,0.00,,,0.00,Wunderground v.1.15,2014-08-30 15:20:00,
2014-08-30 11:25:00,90.8,80.5,30.09,SE,138,0.0,1.0,72,0.00,,,0.00,Wunderground v.1.15,2014-08-30 15:25:00,
2014-08-30 11:30:00,91.1,81.2,30.10,East,98,0.0,1.0,73,0.00,,,0.00,Wunderground v.1.15,2014-08-30 15:30:00,
2014-08-30 11:35:00,91.4,81.1,30.10,ESE,119,0.0,1.0,72,0.00,,,0.00,Wunderground v.1.15,2014-08-30 15:35:00,
2014-08-30 11:40:00,91.8,80.6,30.09,ESE,110,0.0,1.0,70,0.00,,,0.00,Wunderground v.1.15,2014-08-30 15:40:00,
2014-08-30 11:45:00,92.0,80.4,30.09,ESE,122,0.0,1.0,69,0.00,,,0.00,Wunderground v.1.15,2014-08-30 15:45:00,
2014-08-30 11:55:00,92.3,80.7,30.09,ESE,119,0.0,1.0,69,0.00,,,0.00,Wunderground v.1.15,2014-08-30 15:55:00,
2014-08-30 12:00:00,92.6,81.4,30.09,WSW,240,0.0,1.0,70,0.00,,,0.00,Wunderground v.1.15,2014-08-30 16:00:00,
2014-08-30 12:05:00,93.0,81.3,30.09,ESE,108,0.0,1.0,69,0.00,,,0.00,Wunderground v.1.15,2014-08-30 16:05:00,
2014-08-30 12:15:00,93.5,80.9,30.08,ESE,109,0.0,1.0,67,0.00,,,0.00,Wunderground v.1.15,2014-08-30 16:15:00,